SWA4275 KSNA-KPHX

Flight info

Callsign SWA4275
Flight time 0h 56m
Altitude 33000
Route STAYY4 CNERY BLH HYDRR1
Aircraft B737/M-SADE2E3GIJ4RWZ/LB1D1

Departure

Time 2026-05-05 21:24
Airport John Wayne Orange County International Airport (KSNA)

Arrival

Time 2026-05-05 22:21
Airport Phoenix Sky Harbor International Airport (KPHX)
Time Latitude Longitude Altitude Speed Heading
2026-05-05 20:26 33.67649 -117.86421 55 ft 0 kts 117°
2026-05-05 21:17 33.67659 -117.86447 49 ft 4 kts 109°
2026-05-05 21:17 33.67664 -117.86478 51 ft 4 kts 77°
2026-05-05 21:18 33.67655 -117.86496 50 ft 2 kts 27°
2026-05-05 21:21 33.67669 -117.86487 49 ft 9 kts 27°
2026-05-05 21:21 33.67743 -117.86440 53 ft 15 kts 28°
2026-05-05 21:22 33.67854 -117.86374 51 ft 20 kts 27°
2026-05-05 21:22 33.67983 -117.86291 49 ft 19 kts 30°
2026-05-05 21:22 33.68077 -117.86357 46 ft 19 kts 310°
2026-05-05 21:22 33.68102 -117.86397 46 ft 1 kts 300°
2026-05-05 21:23 33.68106 -117.86406 46 ft 3 kts 298°
2026-05-05 21:23 33.68129 -117.86458 44 ft 16 kts 300°
2026-05-05 21:23 33.68149 -117.86520 45 ft 6 kts 245°
2026-05-05 21:23 33.68031 -117.86595 46 ft 49 kts 207°
2026-05-05 21:24 33.67486 -117.86940 62 ft 125 kts 208°
2026-05-05 21:24 33.66592 -117.87470 464 ft 153 kts 205°
2026-05-05 21:24 33.65593 -117.88034 1338 ft 159 kts 204°
2026-05-05 21:24 33.64577 -117.88606 2048 ft 173 kts 218°
2026-05-05 21:25 33.63428 -117.89327 2329 ft 209 kts 192°
2026-05-05 21:25 33.61960 -117.88954 2875 ft 229 kts 162°
2026-05-05 21:25 33.60322 -117.88902 3258 ft 249 kts 201°
2026-05-05 21:25 33.58912 -117.90129 4052 ft 255 kts 223°
2026-05-05 21:26 33.57331 -117.91100 4933 ft 264 kts 191°
2026-05-05 21:26 33.55487 -117.91037 5824 ft 271 kts 163°
2026-05-05 21:26 33.53835 -117.89959 6620 ft 276 kts 140°
2026-05-05 21:26 33.52485 -117.88325 6951 ft 276 kts 132°
2026-05-05 21:27 33.51184 -117.86596 6987 ft 282 kts 130°
2026-05-05 21:27 33.50151 -117.84620 6997 ft 281 kts 114°
2026-05-05 21:27 33.49365 -117.82476 6991 ft 280 kts 113°
2026-05-05 21:27 33.48577 -117.80356 6991 ft 278 kts 114°
2026-05-05 21:28 33.47801 -117.78241 6989 ft 277 kts 109°
2026-05-05 21:28 33.47577 -117.75957 7005 ft 278 kts 85°
2026-05-05 21:28 33.47764 -117.73642 6996 ft 280 kts 84°
2026-05-05 21:28 33.47963 -117.71327 7028 ft 281 kts 84°
2026-05-05 21:29 33.48446 -117.69043 7553 ft 287 kts 62°
2026-05-05 21:29 33.49425 -117.66976 8697 ft 285 kts 58°
2026-05-05 21:29 33.50429 -117.64907 9755 ft 290 kts 58°
2026-05-05 21:29 33.51454 -117.62788 10600 ft 301 kts 58°
2026-05-05 21:30 33.52549 -117.60515 10909 ft 331 kts 58°
2026-05-05 21:30 33.53730 -117.58046 11455 ft 348 kts 58°
2026-05-05 21:30 33.54937 -117.55506 12361 ft 353 kts 58°
2026-05-05 21:30 33.56162 -117.52929 13294 ft 359 kts 58°
2026-05-05 21:31 33.57288 -117.50223 14189 ft 367 kts 70°
2026-05-05 21:31 33.57645 -117.47184 15176 ft 372 kts 91°
2026-05-05 21:31 33.57120 -117.44139 16168 ft 377 kts 108°
2026-05-05 21:31 33.56207 -117.41161 17027 ft 384 kts 110°
2026-05-05 21:32 33.55230 -117.38204 17864 ft 389 kts 110°
2026-05-05 21:32 33.54225 -117.35164 18747 ft 393 kts 110°
2026-05-05 21:32 33.53236 -117.32096 19562 ft 397 kts 109°
2026-05-05 21:32 33.52256 -117.28989 20314 ft 402 kts 109°
2026-05-05 21:33 33.51270 -117.25819 21041 ft 407 kts 108°
2026-05-05 21:33 33.50549 -117.22531 21922 ft 407 kts 98°
2026-05-05 21:33 33.50290 -117.19146 22690 ft 410 kts 90°
2026-05-05 21:33 33.50236 -117.15712 23399 ft 415 kts 89°
2026-05-05 21:34 33.50210 -117.12241 24025 ft 419 kts 89°
2026-05-05 21:34 33.50176 -117.08721 24544 ft 426 kts 89°
2026-05-05 21:34 33.50124 -117.05147 25086 ft 431 kts 90°
2026-05-05 21:34 33.50056 -117.01538 25634 ft 436 kts 90°
2026-05-05 21:35 33.49978 -116.97871 26099 ft 443 kts 90°
2026-05-05 21:35 33.49898 -116.94169 26618 ft 448 kts 91°
2026-05-05 21:35 33.49816 -116.90414 27106 ft 453 kts 91°
2026-05-05 21:35 33.49751 -116.86627 27594 ft 458 kts 90°
2026-05-05 21:36 33.49709 -116.82786 28040 ft 464 kts 90°
2026-05-05 21:36 33.49674 -116.78906 28498 ft 468 kts 91°
2026-05-05 21:36 33.49638 -116.74983 28945 ft 473 kts 91°
2026-05-05 21:36 33.49598 -116.71076 29354 ft 478 kts 91°
2026-05-05 21:37 33.49552 -116.67076 29760 ft 483 kts 91°
2026-05-05 21:37 33.49501 -116.63034 30155 ft 487 kts 91°
2026-05-05 21:37 33.49448 -116.58979 30600 ft 487 kts 92°
2026-05-05 21:37 33.49394 -116.54923 31086 ft 487 kts 92°
2026-05-05 21:38 33.49338 -116.50860 31521 ft 488 kts 92°
2026-05-05 21:38 33.49281 -116.46788 31928 ft 490 kts 92°
2026-05-05 21:38 33.49224 -116.42694 32357 ft 491 kts 92°
2026-05-05 21:38 33.49165 -116.38611 32831 ft 492 kts 92°
2026-05-05 21:39 33.49047 -116.30353 32928 ft 497 kts 93°
2026-05-05 21:39 33.48919 -116.22123 32930 ft 491 kts 93°
2026-05-05 21:40 33.48785 -116.13925 32931 ft 493 kts 93°
2026-05-05 21:40 33.48741 -116.05694 32921 ft 497 kts 88°
2026-05-05 21:41 33.50148 -115.97566 32925 ft 502 kts 71°
2026-05-05 21:41 33.52539 -115.89686 32919 ft 504 kts 70°
2026-05-05 21:42 33.54940 -115.81783 32919 ft 505 kts 71°
2026-05-05 21:42 33.57270 -115.73825 32907 ft 506 kts 71°
2026-05-05 21:43 33.59184 -115.67201 32903 ft 505 kts 71°
2026-05-05 21:43 33.61857 -115.57961 32909 ft 503 kts 72°
2026-05-05 21:44 33.64152 -115.50025 32909 ft 503 kts 72°
2026-05-05 21:44 33.66071 -115.43423 32907 ft 505 kts 72°
2026-05-05 21:45 33.68270 -115.35398 32899 ft 507 kts 70°
2026-05-05 21:45 33.69145 -115.31309 32873 ft 504 kts 88°
2026-05-05 21:45 33.68923 -115.27163 32905 ft 494 kts 109°
2026-05-05 21:46 33.67740 -115.23350 32932 ft 485 kts 121°
2026-05-05 21:46 33.66318 -115.19684 32897 ft 485 kts 119°
2026-05-05 21:46 33.64152 -115.11957 32893 ft 494 kts 108°
2026-05-05 21:47 33.62952 -115.03802 32906 ft 499 kts 102°
2026-05-05 21:47 33.62025 -114.95534 32909 ft 500 kts 103°
2026-05-05 21:48 33.61028 -114.87258 32919 ft 501 kts 104°
2026-05-05 21:48 33.59980 -114.79034 32918 ft 502 kts 104°
2026-05-05 21:49 33.58734 -114.70801 32921 ft 500 kts 109°
2026-05-05 21:49 33.57108 -114.62717 32929 ft 500 kts 110°
2026-05-05 21:50 33.55450 -114.54616 32911 ft 500 kts 110°
2026-05-05 21:50 33.54638 -114.50554 32241 ft 505 kts 110°
2026-05-05 21:50 33.53829 -114.46453 31475 ft 503 kts 110°
2026-05-05 21:51 33.53031 -114.42371 30608 ft 504 kts 110°
2026-05-05 21:51 33.52237 -114.38299 29916 ft 496 kts 110°
2026-05-05 21:51 33.51462 -114.34323 29111 ft 486 kts 110°
2026-05-05 21:51 33.50692 -114.30406 28458 ft 481 kts 109°
2026-05-05 21:52 33.49162 -114.22688 27183 ft 470 kts 109°
2026-05-05 21:52 33.48406 -114.18885 26486 ft 467 kts 108°
2026-05-05 21:52 33.47660 -114.15136 26007 ft 457 kts 108°
2026-05-05 21:53 33.46938 -114.11495 25224 ft 447 kts 107°
2026-05-05 21:53 33.46228 -114.07922 25005 ft 436 kts 107°
2026-05-05 21:53 33.45528 -114.04424 24628 ft 429 kts 107°
2026-05-05 21:53 33.44833 -114.00968 24390 ft 427 kts 107°
2026-05-05 21:54 33.44138 -113.97516 24133 ft 426 kts 107°
2026-05-05 21:54 33.43446 -113.94075 23945 ft 426 kts 107°
2026-05-05 21:54 33.42742 -113.90640 23937 ft 423 kts 107°
2026-05-05 21:54 33.42051 -113.87216 23968 ft 425 kts 107°
2026-05-05 21:55 33.41377 -113.83811 23963 ft 427 kts 107°
2026-05-05 21:55 33.40696 -113.80344 23983 ft 429 kts 107°
2026-05-05 21:55 33.40017 -113.76862 23978 ft 431 kts 107°
2026-05-05 21:55 33.39340 -113.73365 23979 ft 429 kts 107°
2026-05-05 21:56 33.38642 -113.69951 23637 ft 417 kts 108°
2026-05-05 21:56 33.37942 -113.66605 22770 ft 412 kts 108°
2026-05-05 21:56 33.37251 -113.63291 21727 ft 409 kts 107°
2026-05-05 21:56 33.36573 -113.60015 20943 ft 401 kts 107°
2026-05-05 21:57 33.35925 -113.56840 20726 ft 388 kts 107°
2026-05-05 21:57 33.35277 -113.53656 20495 ft 402 kts 106°
2026-05-05 21:57 33.34662 -113.50365 20207 ft 405 kts 104°
2026-05-05 21:57 33.34083 -113.47093 19929 ft 400 kts 104°
2026-05-05 21:58 33.33514 -113.43852 19657 ft 397 kts 104°
2026-05-05 21:58 33.32949 -113.40664 19398 ft 395 kts 104°
2026-05-05 21:58 33.32375 -113.37465 19131 ft 392 kts 104°
2026-05-05 21:58 33.31799 -113.34288 18874 ft 390 kts 104°
2026-05-05 21:59 33.31222 -113.31129 18616 ft 388 kts 104°
2026-05-05 21:59 33.30649 -113.27989 18367 ft 385 kts 104°
2026-05-05 21:59 33.30081 -113.24876 18098 ft 383 kts 104°
2026-05-05 21:59 33.29525 -113.21776 17828 ft 381 kts 102°
2026-05-05 22:00 33.29064 -113.18654 17558 ft 381 kts 101°
2026-05-05 22:00 33.28644 -113.15539 17306 ft 379 kts 101°
2026-05-05 22:00 33.28218 -113.12433 17055 ft 378 kts 101°
2026-05-05 22:00 33.27780 -113.09343 16909 ft 373 kts 101°
2026-05-05 22:01 33.27397 -113.06335 16662 ft 360 kts 96°
2026-05-05 22:01 33.27349 -113.03358 16451 ft 357 kts 90°
2026-05-05 22:01 33.27464 -113.00398 16237 ft 357 kts 88°
2026-05-05 22:01 33.27604 -112.97436 16010 ft 357 kts 88°
2026-05-05 22:02 33.27725 -112.94465 15777 ft 358 kts 89°
2026-05-05 22:02 33.27821 -112.91550 15549 ft 354 kts 89°
2026-05-05 22:02 33.27900 -112.88615 15324 ft 353 kts 90°
2026-05-05 22:02 33.27972 -112.85680 15098 ft 353 kts 90°
2026-05-05 22:03 33.28042 -112.82798 14867 ft 340 kts 90°
2026-05-05 22:03 33.28181 -112.80025 14649 ft 330 kts 86°
2026-05-05 22:03 33.28429 -112.77318 14442 ft 325 kts 84°
2026-05-05 22:03 33.28706 -112.74634 14235 ft 327 kts 84°
2026-05-05 22:04 33.28985 -112.71915 14039 ft 332 kts 85°
2026-05-05 22:04 33.29259 -112.69178 13831 ft 329 kts 85°
2026-05-05 22:04 33.29523 -112.66483 13578 ft 325 kts 85°
2026-05-05 22:04 33.29780 -112.63804 13341 ft 324 kts 85°
2026-05-05 22:05 33.30032 -112.61130 13126 ft 324 kts 85°
2026-05-05 22:05 33.30282 -112.58451 12913 ft 324 kts 85°
2026-05-05 22:05 33.30531 -112.55780 12693 ft 322 kts 85°
2026-05-05 22:05 33.30776 -112.53128 12477 ft 320 kts 85°
2026-05-05 22:06 33.31019 -112.50498 12276 ft 319 kts 85°
2026-05-05 22:06 33.31261 -112.47859 12082 ft 319 kts 85°
2026-05-05 22:06 33.31503 -112.45220 11883 ft 321 kts 85°
2026-05-05 22:06 33.31746 -112.42559 11669 ft 322 kts 85°
2026-05-05 22:07 33.31987 -112.39930 11459 ft 315 kts 85°
2026-05-05 22:07 33.32224 -112.37346 11254 ft 312 kts 85°
2026-05-05 22:07 33.32458 -112.34772 11070 ft 311 kts 85°
2026-05-05 22:07 33.32694 -112.32191 10862 ft 313 kts 85°
2026-05-05 22:08 33.32930 -112.29610 10646 ft 312 kts 85°
2026-05-05 22:08 33.33165 -112.27039 10437 ft 310 kts 85°
2026-05-05 22:08 33.33394 -112.24515 10233 ft 308 kts 85°
2026-05-05 22:08 33.33624 -112.21984 10024 ft 303 kts 84°
2026-05-05 22:09 33.33847 -112.19511 9831 ft 296 kts 85°
2026-05-05 22:09 33.34066 -112.17078 9599 ft 292 kts 85°
2026-05-05 22:09 33.34282 -112.14682 9388 ft 286 kts 85°
2026-05-05 22:09 33.34492 -112.12347 9197 ft 278 kts 85°
2026-05-05 22:10 33.34696 -112.10079 9006 ft 271 kts 85°
2026-05-05 22:10 33.34819 -112.07853 8804 ft 267 kts 91°
2026-05-05 22:10 33.34808 -112.05620 8518 ft 270 kts 86°
2026-05-05 22:10 33.35260 -112.03474 8410 ft 264 kts 71°
2026-05-05 22:11 33.35841 -112.01420 8338 ft 258 kts 73°
2026-05-05 22:11 33.36386 -111.99382 8154 ft 257 kts 73°
2026-05-05 22:11 33.37028 -111.97410 7930 ft 256 kts 56°
2026-05-05 22:11 33.37954 -111.95598 7700 ft 254 kts 70°
2026-05-05 22:12 33.38524 -111.93640 7630 ft 244 kts 71°
2026-05-05 22:12 33.39124 -111.91780 7547 ft 236 kts 69°
2026-05-05 22:12 33.39731 -111.89977 7399 ft 232 kts 69°
2026-05-05 22:12 33.40334 -111.88188 7238 ft 231 kts 69°
2026-05-05 22:13 33.40934 -111.86420 7097 ft 228 kts 69°
2026-05-05 22:13 33.41527 -111.84658 6871 ft 229 kts 69°
2026-05-05 22:13 33.42119 -111.82900 6685 ft 227 kts 69°
2026-05-05 22:13 33.42708 -111.81144 6438 ft 228 kts 69°
2026-05-05 22:14 33.43288 -111.79401 6257 ft 223 kts 69°
2026-05-05 22:14 33.43734 -111.77623 5859 ft 224 kts 92°
2026-05-05 22:14 33.43233 -111.75936 5494 ft 215 kts 137°
2026-05-05 22:14 33.41967 -111.75173 5142 ft 203 kts 182°
2026-05-05 22:15 33.40714 -111.75705 4853 ft 192 kts 223°
2026-05-05 22:15 33.39635 -111.76602 4584 ft 190 kts 208°
2026-05-05 22:15 33.38597 -111.77475 4486 ft 177 kts 226°
2026-05-05 22:15 33.37879 -111.78643 4252 ft 174 kts 250°
2026-05-05 22:16 33.37752 -111.80042 4164 ft 167 kts 273°
2026-05-05 22:16 33.38060 -111.81342 4082 ft 158 kts 296°
2026-05-05 22:16 33.38731 -111.82307 4025 ft 145 kts 317°
2026-05-05 22:16 33.39638 -111.82884 3885 ft 157 kts 340°
2026-05-05 22:17 33.40843 -111.82992 3814 ft 189 kts
2026-05-05 22:17 33.42118 -111.82969 3713 ft 174 kts 332°
2026-05-05 22:17 33.42901 -111.83931 3747 ft 166 kts 282°
2026-05-05 22:17 33.42896 -111.85323 3546 ft 169 kts 262°
2026-05-05 22:18 33.42905 -111.86742 3284 ft 169 kts 271°
2026-05-05 22:18 33.42910 -111.88111 3046 ft 164 kts 268°
2026-05-05 22:18 33.42897 -111.89495 2871 ft 172 kts 268°
2026-05-05 22:18 33.42890 -111.90918 2613 ft 167 kts 269°
2026-05-05 22:19 33.42891 -111.92323 2456 ft 172 kts 267°
2026-05-05 22:19 33.42890 -111.93791 2191 ft 180 kts 270°
2026-05-05 22:19 33.42868 -111.95287 1973 ft 181 kts 268°
2026-05-05 22:19 33.42872 -111.96786 1724 ft 181 kts 268°
2026-05-05 22:20 33.42885 -111.98292 1467 ft 180 kts 267°
2026-05-05 22:20 33.42881 -111.99756 1225 ft 171 kts 268°
2026-05-05 22:20 33.42884 -112.01118 1143 ft 155 kts 268°
2026-05-05 22:20 33.42886 -112.02287 1124 ft 103 kts 274°
2026-05-05 22:21 33.42887 -112.02622 1118 ft 23 kts 276°
2026-05-05 22:21 33.43011 -112.02699 1123 ft 22 kts 359°
2026-05-05 22:21 33.43163 -112.02706 1122 ft 21 kts 359°
2026-05-05 22:21 33.43258 -112.02695 1125 ft 5 kts 10°
2026-05-05 22:22 33.43264 -112.02693 1127 ft 0 kts 19°
2026-05-05 22:22 33.43290 -112.02663 1133 ft 32 kts 52°
2026-05-05 22:22 33.43291 -112.02345 1129 ft 40 kts 91°
2026-05-05 22:22 33.43291 -112.01975 1133 ft 47 kts 90°
2026-05-05 22:23 33.43290 -112.01573 1132 ft 50 kts 90°
2026-05-05 22:23 33.43288 -112.01161 1131 ft 48 kts 90°
2026-05-05 22:23 33.43290 -112.00758 1130 ft 52 kts 89°
2026-05-05 22:23 33.43284 -112.00303 1132 ft 57 kts 91°
2026-05-05 22:24 33.43289 -112.00041 1131 ft 19 kts 85°
2026-05-05 22:24 33.43314 -111.99952 1131 ft 9 kts 32°
2026-05-05 22:24 33.43342 -111.99946 1132 ft 0 kts